This is the latest recevied weather packets stored in our database for station/object N1HQ. If no packets are shown the sender has not sent any weather packets the latest 10 day(s).
| Time | Temp. | Humidity | Pressure | Rain* | Wind** | Luminosity | Snow |
|---|---|---|---|---|---|---|---|
| 1787690338 | 32.22° C | 74% | 1012.2 hPa | 0 mm | - | - | - |
| 1787690083 | 32.22° C | 76% | 1012.3 hPa | 0 mm | - | - | - |
| 1787689788 | 32.22° C | 78% | 1012.4 hPa | 0 mm | - | - | - |
| 1787689528 | 32.22° C | 76% | 1012.4 hPa | 0 mm | - | - | - |
| 1787689253 | 32.22° C | 76% | 1012.5 hPa | 0 mm | - | - | - |
| 1787688983 | 32.22° C | 75% | 1012.6 hPa | 0 mm | - | - | - |
| 1787688718 | 32.22° C | 78% | 1012.6 hPa | 0 mm | - | - | - |
| 1787688468 | 32.22° C | 77% | 1012.7 hPa | 0 mm | - | - | - |
| 1787688171 | 32.22° C | 77% | 1012.6 hPa | 0 mm | - | - | - |
| 1787687923 | 32.22° C | 77% | 1012.8 hPa | 0 mm | - | - | - |
| 1787687623 | 32.22° C | 80% | 1012.9 hPa | 0 mm | - | - | - |
| 1787687338 | 32.22° C | 77% | 1013 hPa | 0 mm | - | - | - |
| 1787687063 | 32.22° C | 76% | 1013 hPa | 0 mm | - | - | - |
| 1787686778 | 32.22° C | 78% | 1013 hPa | 0 mm | - | - | - |
| 1787686483 | 32.22° C | 78% | 1013.1 hPa | 0 mm | - | - | - |
| 1787686223 | 32.22° C | 77% | 1013 hPa | 0 mm | - | - | - |
| 1787685938 | 32.22° C | 78% | 1013 hPa | 0 mm | - | - | - |
| 1787685668 | 32.78° C | 76% | 1013 hPa | 0 mm | - | - | - |
| 1787685415 | 32.22° C | 76% | 1013.2 hPa | 0 mm | - | - | - |
| 1787685129 | 32.22° C | 77% | 1013.2 hPa | 0 mm | - | - | - |
| 1787684851 | 32.22° C | 77% | 1013.1 hPa | 0 mm | - | - | - |
| 1787684573 | 32.22° C | 77% | 1013.2 hPa | 0 mm | - | - | - |
| 1787684310 | 32.22° C | 76% | 1013.3 hPa | 0 mm | - | - | - |
| 1787684068 | 32.22° C | 78% | 1013.4 hPa | 0 mm | - | - | - |
| 1787683783 | 32.22° C | 78% | 1013.6 hPa | 0 mm | - | - | - |
* Rain latest hour (hover to see other rain measurements)
** Current wind speed in m/s (hover to see current wind gust speed)